Notices

What's New in latest Release from April 7th, 2021:

- Updated Glossary, including Speed of Maximum Gust, and Total Hourly Precipitation

- Updated national and regional climate services offices contacts and prices information

- Addition of station inventory lists for 1981-2010, 1971-2000, and 1961-1990 Normals.

If you haven't already, please take our survey and provide feedback about our website: https://eccc.sondage-survey.ca/f/LanguageSelection.aspx?s=442ca660-fcf1-47c0-95a9-59707d6fd709

Hourly Data Report for January 18, 2012

HALIFAX STANFIELD INT'L A
NOVA SCOTIA

44°52'48.060" N
63°30'00.050" W
145.40 m
8202250
71395
YHZ

Download Data

Hourly Data (January 2012)
Hourly Data Report for January 18, 2012
TIME
LST
Temp Definition
°C
Dew Point Definition
°C
Rel Hum Definition
%
Precip. Amount Definition
mm

Wind Dir Definition
10's deg

Wind Spd Definition
km/h
Visibility Definition
km
Stn Press Definition
kPa
Hmdx Definition


Wind Chill Definition


Weather Definition


00:00 1.5 1.5 100   14 20 0.4 98.82     Rain Showers,Fog
01:00 2.5 2.5 100   14 24 0.4 98.68     Rain Showers,Fog
02:00 3.1 3.1 100   14 26 0.4 98.54     Rain Showers,Fog
03:00 3.8 3.8 100   16 24 0.8 98.40     Rain Showers,Fog
04:00 4.1 4.1 100   15 22 1.2 98.25     Drizzle,Fog
05:00 4.4 4.4 100   16 26 0.6 98.10     Rain Showers,Fog
06:00 5.0 5.0 100   17 20 0.4 98.00     Rain Showers,Fog
07:00 6.8 6.8 100   20 33 0.8 97.91     Fog
08:00 7.1 7.1 100   20 28 2.4 97.90     Drizzle,Fog
09:00 6.9 6.9 100   20 24 3.2 97.91     Fog
10:00 6.7 6.7 100   21 22 4.8 97.91     Fog
11:00 7.1 7.1 100   21 28 8.0 97.87     Fog
12:00 6.8 6.8 100   20 28 12.9 97.82     Cloudy
13:00 7.2 6.8 97   20 28 24.1 97.77     Mostly Cloudy
14:00 7.4 4.7 83   23 37 24.1 97.79     Mostly Cloudy
15:00 6.0 -0.7 62   25 37 24.1 97.85     Mainly Clear
16:00 5.1 -1.7 61   27 22 24.1 97.97     Mainly Clear
17:00 3.2 -3.3 62   27 19 24.1 98.12     Mainly Clear
18:00 1.2 -6.0 59   27 20 24.1 98.27     Clear
19:00 -0.3 -6.2 64   27 28 24.1 98.40   -7 Clear
20:00 -1.5 -7.8 62   29 28 24.1 98.58   -8 Clear
21:00 -2.4 -9.0 60   29 33 24.1 98.70   -10 Mainly Clear
22:00 -3.9 -9.5 65   30 33 24.1 98.81   -12 Mainly Clear
23:00 -5.1 -10.8 64   31 39 24.1 99.05   -14 Mainly Clear

Notes on Data Quality.

Legend

  • E = Estimated
  • M = Missing
  • NA = Not Available*
  • [empty] = Indicates an unobserved value
Date modified: